Preview of NWS' New Version of Forecast
This preview is not operational and should not be used for support decisions.

Regional Weather Roundup (RWR)

Issued by National Weather Service (NWS)

                            
000
ASCA42 TJSJ 241610
RWRPR 
PUERTO RICO/U.S. VIRGIN ISLANDS HOURLY WEATHER ROUNDUP
NATIONAL WEATHER SERVICE SAN JUAN PR
1200 PM AST SUN MAR 24 2019

PRZ001>002-007>008-010-241700-
PUERTO RICO
  
CITY           SKY/WX    TMP DP  RH WIND       PRES   REMARKS
SAN JUAN LMM   MOSUNNY   84  72  65 E22G29    30.09F                  
AGUADILLA      SUNNY     84  70  61 NE17      30.11F                  
CEIBA          SUNNY     86  70  58 E13       30.12F HX  90           
$$

VIZ001>002-241700-
U.S. VIRGIN ISLANDS
  
CITY           SKY/WX    TMP DP  RH WIND       PRES   REMARKS
CHARLOTTE AMA  MOSUNNY   82  70  65 SE15G22   30.10F                  
CHRISTIANSTED  MOSUNNY   86  68  54 E20G26    30.10F                  
$$

HOURLY WEATHER ROUNDUP FOR THE NEWS MEDIA
  
CITY           SKY/WX    TMP DP  RH WIND       PRES   REMARKS
ORLANDO        FAIR      75  56  51 E12       30.27S                  
NEW YORK       FAIR      50  16  25 W13       30.18F                  
NEWARK         FAIR      53  10  18 W9        30.17F                  
CHICAGO        CLOUDY    47  35  63 E3        30.12S                  
HARTFORD       FAIR      49  22  34 W16       30.06F                  
BOSTON         FAIR      51  19  28 W14G21    30.02F                  
DALLAS         PTSUNNY   74  63  68 SW10      30.05S                  
PHILADELPHIA   PTSUNNY   53  20  27 SW8       30.23F                  
LOS ANGELES    MOSUNNY   58  52  80 E5        30.19R                  
WASHINGTON DC  PTSUNNY   57  19  22 S13       30.26F